Date String (YYYY-MM-DD hh:mm:ss) UTC,Instrument flags,Ambient pressure (hPa),Sample flow (lpm),Bypass flow (lpm),Sample temperature (°C),Ambient temperature (°C),ASC tube jacket temperature (°C),LED temperature (°C),Box temperature (°C),Sample RH (%),Span deviation,Mass concentration (μg/m³),Mass concentration (μg/m³),Mass concentration (μg/m³)
DateTimeUTC,F1_M11,P_M11,Q1_M11,Q2_M11,T1_M11,T2_M11,T3_M11,T4_M11,T5_M11,U1_M11,ZSPAN_M11,X2_M11,X0_M11,X1_M11
2022-10-06 18:00:00,,0834.7,5.01,0.00,30.3,29.2,00.0,39.0,32.2,19.1,0001.1,0008.00,0013.55,0007.51
2022-10-06 18:01:00,,0834.7,5.01,0.00,30.4,29.2,00.0,39.0,32.2,19.0,0001.2,0007.97,0013.44,0007.49
2022-10-06 18:02:00,,0834.8,5.00,0.00,30.4,28.4,00.0,39.0,32.1,18.7,0001.8,0007.96,0013.47,0007.49
2022-10-06 18:03:00,,0834.7,5.00,0.00,30.3,27.0,00.0,39.0,31.9,18.5,0002.3,0007.93,0013.44,0007.48
2022-10-06 18:04:00,,0834.7,4.99,0.00,30.2,26.6,00.0,38.9,31.8,18.5,0002.1,0007.93,0013.56,0007.48
2022-10-06 18:05:00,,0834.7,5.00,0.00,30.1,26.8,00.0,38.9,31.7,18.9,0002.2,0007.91,0013.48,0007.47
2022-10-06 18:06:00,,0834.7,5.00,0.00,30.0,27.2,00.0,38.8,31.6,18.6,0002.1,0007.93,0013.50,0007.47
2022-10-06 18:07:00,,0834.7,5.01,0.00,30.0,27.5,00.0,38.8,31.6,18.8,0001.8,0007.96,0013.28,0007.50
2022-10-06 18:08:00,,0834.7,5.00,0.00,30.0,27.8,00.0,38.8,31.7,19.2,0001.7,0007.92,0013.18,0007.49
2022-10-06 18:09:00,,0834.7,5.00,0.00,30.0,28.0,00.0,38.8,31.7,19.3,0002.0,0007.91,0013.27,0007.50
2022-10-06 18:10:00,,0834.7,5.00,0.00,30.0,28.2,00.0,38.7,31.7,19.5,0002.3,0007.89,0013.00,0007.49
2022-10-06 18:11:00,,0834.7,5.00,0.00,30.0,28.3,00.0,38.7,31.7,19.3,0002.2,0007.92,0012.60,0007.51
2022-10-06 18:12:00,,0834.7,5.01,0.00,30.0,28.5,00.0,38.7,31.7,19.4,0002.6,0007.94,0013.46,0007.52
2022-10-06 18:13:00,,0834.7,4.99,0.00,30.0,28.6,00.0,38.7,31.8,19.4,0002.6,0007.98,0013.83,0007.52
2022-10-06 18:14:00,,0834.7,5.01,0.00,30.0,28.7,00.0,38.7,31.8,19.5,0002.5,0008.00,0014.30,0007.52
2022-10-06 18:15:00,,0834.7,4.99,0.00,30.0,28.7,00.0,38.7,31.8,19.3,0002.3,0008.03,0014.42,0007.52
2022-10-06 18:16:00,,0834.7,5.01,0.00,30.0,28.8,00.0,38.7,31.9,19.2,0002.4,0008.11,0014.73,0007.56
2022-10-06 18:17:00,,0834.6,4.99,0.00,30.0,28.9,00.0,38.7,31.9,19.3,0002.4,0008.12,0014.76,0007.60
2022-10-06 18:18:00,,0834.6,5.01,0.00,30.1,28.9,00.0,38.7,31.9,19.2,0002.6,0008.15,0015.28,0007.64
2022-10-06 18:19:00,,0834.7,5.00,0.00,30.1,29.0,00.0,38.8,32.0,19.4,0002.8,0008.25,0015.68,0007.72
2022-10-06 18:20:00,,0834.6,5.01,0.00,30.1,29.0,00.0,38.8,32.0,19.2,0002.7,0008.33,0016.14,0007.78
2022-10-06 18:21:00,,0834.6,4.99,0.00,30.1,29.1,00.0,38.8,32.0,19.4,0002.4,0008.42,0016.61,0007.85
2022-10-06 18:22:00,,0834.6,5.01,0.00,30.2,29.1,00.0,38.8,32.0,19.3,0002.6,0008.46,0017.29,0007.90
2022-10-06 18:23:00,,0834.6,4.99,0.00,30.2,29.2,00.0,38.8,32.0,19.3,0002.5,0008.58,0016.87,0007.98
2022-10-06 18:24:00,,0834.6,5.00,0.00,30.2,29.2,00.0,38.8,32.1,18.8,0002.5,0008.63,0016.58,0008.04
2022-10-06 18:25:00,,0834.6,5.00,0.00,30.2,29.2,00.0,38.9,32.1,18.7,0002.5,0008.68,0016.42,0008.10
2022-10-06 18:26:00,,0834.6,5.00,0.00,30.2,28.3,00.0,38.9,32.0,18.7,0002.6,0008.74,0016.29,0008.18
2022-10-06 18:27:00,,0834.6,4.99,0.00,30.2,26.8,00.0,38.8,31.8,18.8,0002.7,0008.79,0016.25,0008.24
2022-10-06 18:28:00,,0834.6,5.00,0.00,30.1,26.4,00.0,38.8,31.7,18.8,0002.6,0008.90,0016.49,0008.35
2022-10-06 18:29:00,,0834.5,5.01,0.00,30.0,26.6,00.0,38.7,31.6,19.2,0002.5,0008.98,0015.99,0008.42
2022-10-06 18:30:00,,0834.5,5.00,0.00,29.9,27.0,00.0,38.7,31.5,19.1,0002.3,0009.03,0015.81,0008.50
2022-10-06 18:31:00,,0834.5,5.00,0.00,29.9,27.3,00.0,38.7,31.5,19.4,0002.4,0009.09,0015.60,0008.55
2022-10-06 18:32:00,,0834.5,4.99,0.00,29.8,27.6,00.0,38.6,31.5,19.3,0002.6,0009.16,0015.79,0008.60
2022-10-06 18:33:00,,0834.4,5.00,0.00,29.8,27.9,00.0,38.6,31.6,19.5,0002.6,0009.20,0015.85,0008.62
2022-10-06 18:34:00,,0834.5,5.01,0.00,29.8,28.1,00.0,38.6,31.6,19.0,0002.5,0009.19,0015.88,0008.61
2022-10-06 18:35:00,,0834.5,5.01,0.00,29.8,28.2,00.0,38.6,31.7,18.4,0002.4,0009.26,0016.16,0008.68
2022-10-06 18:36:00,,0834.4,4.99,0.00,29.9,28.4,00.0,38.6,31.7,18.5,0002.1,0009.33,0016.95,0008.74
2022-10-06 18:37:00,,0834.4,5.00,0.00,29.9,28.5,00.0,38.6,31.7,18.4,0002.0,0009.41,0017.52,0008.80
2022-10-06 18:38:00,,0834.4,5.00,0.00,29.9,28.6,00.0,38.6,31.7,18.4,0001.7,0009.53,0018.04,0008.85
2022-10-06 18:39:00,,0834.4,5.00,0.00,29.9,28.7,00.0,38.6,31.7,18.1,0001.8,0009.62,0018.46,0008.91
2022-10-06 18:40:00,,0834.4,4.99,0.00,29.9,28.7,00.0,38.6,31.7,18.4,0001.9,0009.65,0018.80,0008.94
2022-10-06 18:41:00,,0834.4,5.02,0.00,29.9,28.8,00.0,38.6,31.8,19.2,0001.9,0009.62,0019.14,0008.91
2022-10-06 18:42:00,,0834.4,4.99,0.00,30.0,28.8,00.0,38.6,31.8,18.5,0001.7,0009.63,0019.63,0008.91
2022-10-06 18:43:00,,0834.4,5.01,0.00,30.0,28.9,00.0,38.6,31.9,18.1,0001.5,0009.69,0019.85,0008.95
2022-10-06 18:44:00,,0834.3,4.99,0.00,30.0,28.9,00.0,38.6,31.9,18.2,0001.5,0009.77,0019.53,0009.02
2022-10-06 18:45:00,,0834.3,5.00,0.00,30.0,28.9,00.0,38.7,31.9,18.5,0001.4,0009.85,0019.52,0009.10
2022-10-06 18:46:00,,0834.3,4.99,0.00,30.0,29.0,00.0,38.7,32.0,18.4,0001.4,0009.86,0019.67,0009.10
2022-10-06 18:47:00,,0834.3,5.00,0.00,30.1,29.0,00.0,38.7,32.0,18.3,0001.3,0009.86,0019.20,0009.09
2022-10-06 18:48:00,,0834.3,5.01,0.00,30.1,29.1,00.0,38.7,32.0,18.4,0001.5,0009.83,0018.54,0009.10
2022-10-06 18:49:00,,0834.3,4.99,0.00,30.1,29.1,00.0,38.7,32.0,18.4,0001.6,0009.76,0018.16,0009.08
2022-10-06 18:50:00,,0834.3,5.00,0.00,30.2,28.9,00.0,38.7,32.0,18.8,0001.6,0009.63,0017.61,0008.98
2022-10-06 18:51:00,,0834.3,5.02,0.00,30.1,27.4,00.0,38.7,31.9,18.6,0001.6,0009.60,0018.39,0008.96
2022-10-06 18:52:00,,0834.3,5.00,0.00,30.0,26.3,00.0,38.7,31.7,18.5,0001.6,0009.66,0019.19,0008.99
2022-10-06 18:53:00,,0834.3,5.00,0.00,30.0,26.3,00.0,38.6,31.6,18.6,0001.8,0009.67,0018.85,0009.04
2022-10-06 18:54:00,,0834.3,5.00,0.00,29.9,26.7,00.0,38.6,31.5,19.2,0002.1,0009.64,0018.59,0009.05
2022-10-06 18:55:00,,0834.3,5.01,0.00,29.8,27.0,00.0,38.6,31.4,18.9,0002.1,0009.64,0018.65,0009.07
2022-10-06 18:56:00,,0834.3,5.00,0.00,29.8,27.3,00.0,38.5,31.4,19.2,0001.9,0009.64,0018.61,0009.08
2022-10-06 18:57:00,,0834.2,5.01,0.00,29.8,27.6,00.0,38.5,31.5,19.0,0001.9,0009.61,0018.21,0009.08
2022-10-06 18:58:00,,0834.1,5.00,0.00,29.8,27.9,00.0,38.5,31.5,19.2,0002.0,0009.64,0017.72,0009.11
2022-10-06 18:59:00,,0834.2,4.99,0.00,29.8,28.1,00.0,38.5,31.5,19.2,0002.1,0009.68,0017.95,0009.12
